When you browse on this site, cookies collect data to enhance your experience and personalize the content and advertising you see.
Visit our Privacy Policy to learn more. By continuing to use the site, you agree to this use of cookies and data.
  • In Hungary
  • List of Countries
  • For 7 days
  • Water Temperature
  • Satellite Maps
  • Weather Map
  • News
  • Weather Widgets
  • user-avatar
    Login

    Hourly Weather Baczyna

    Today, 18 January, Friday

    Time Temperature Precipitation Wind Pressure Humidity
    00:00 +1°C° 0.2 mm 6 mps 741 mmHg 81%
    01:00 +1°C° 0.2 mm 6 mps 741 mmHg 80%
    02:00 -1°C° 0.2 mm 6 mps 742 mmHg 79%
    03:00 -2°C° 0.2 mm 6 mps 743 mmHg 77%
    04:00 -2°C° 0.2 mm 5 mps 744 mmHg 76%
    05:00 -4°C° 0 mm 5 mps 745 mmHg 76%
    06:00 -4°C° 0 mm 5 mps 746 mmHg 77%
    07:00 -4°C° 0 mm 5 mps 747 mmHg 78%
    08:00 -4°C° 0 mm 5 mps 748 mmHg 75%
    09:00 -4°C° 0 mm 5 mps 749 mmHg 73%
    10:00 -2°C° 0 mm 5 mps 750 mmHg 70%
    11:00 -2°C° 0 mm 5 mps 751 mmHg 67%
    12:00 -1°C° 0 mm 4 mps 751 mmHg 64%
    13:00 -1°C° 0 mm 4 mps 752 mmHg 61%
    14:00 -1°C° 0 mm 4 mps 752 mmHg 65%
    15:00 -1°C° 0 mm 3 mps 752 mmHg 68%
    16:00 -1°C° 0 mm 3 mps 752 mmHg 72%
    17:00 -1°C° 0 mm 3 mps 753 mmHg 72%
    18:00 -1°C° 0 mm 3 mps 753 mmHg 72%
    19:00 -2°C° 0 mm 4 mps 753 mmHg 72%
    20:00 -2°C° 0 mm 4 mps 753 mmHg 75%
    21:00 -3°C° 0 mm 4 mps 754 mmHg 79%
    22:00 -3°C° 0 mm 4 mps 754 mmHg 82%
    23:00 -2°C° 0 mm 3 mps 754 mmHg 84%

    Tomorrow, 19 January, Saturday

    Time Temperature Precipitation Wind Pressure Humidity
    00:00 -2°C° 0 mm 3 mps 754 mmHg 86%
    01:00 -4°C° 0 mm 3 mps 755 mmHg 89%
    02:00 -3°C° 0 mm 2 mps 755 mmHg 89%
    03:00 -3°C° 0 mm 2 mps 755 mmHg 90%
    04:00 -3°C° 0 mm 2 mps 755 mmHg 90%
    05:00 -3°C° 0 mm 2 mps 755 mmHg 90%
    06:00 -3°C° 0 mm 2 mps 755 mmHg 90%
    07:00 -3°C° 0 mm 2 mps 755 mmHg 90%
    08:00 -3°C° 0 mm 2 mps 755 mmHg 87%
    09:00 -2°C° 0 mm 2 mps 756 mmHg 85%
    10:00 -2°C° 0 mm 2 mps 756 mmHg 82%
    11:00 -1°C° 0 mm 2 mps 756 mmHg 78%
    12:00 +2°C° 0 mm 1 mps 756 mmHg 73%
    13:00 +3°C° 0 mm 1 mps 755 mmHg 69%
    14:00 +2°C° 0 mm 1 mps 755 mmHg 72%
    15:00 +1°C° 0 mm 1 mps 755 mmHg 75%
    16:00 +1°C° 0 mm 1 mps 755 mmHg 79%
    17:00 0°C° 0 mm 1 mps 755 mmHg 80%
    18:00 0°C° 0 mm 1 mps 755 mmHg 81%
    19:00 0°C° 0 mm 1 mps 754 mmHg 83%
    20:00 0°C° 0 mm 1 mps 754 mmHg 82%
    21:00 -1°C° 0 mm 1 mps 754 mmHg 82%
    22:00 -1°C° 0 mm 1 mps 754 mmHg 82%
    23:00 -1°C° 0 mm 1 mps 754 mmHg 81%

    Day after tomorrow, 20 January, Sunday

    Time Temperature Precipitation Wind Pressure Humidity
    00:00 -1°C° 0 mm 1 mps 754 mmHg 80%
    01:00 -1°C° 0 mm 1 mps 754 mmHg 80%
    02:00 -1°C° 0 mm 1 mps 754 mmHg 79%
    03:00 -1°C° 0 mm 1 mps 754 mmHg 79%
    04:00 -1°C° 0 mm 1 mps 753 mmHg 78%
    05:00 -1°C° 0 mm 1 mps 753 mmHg 78%
    06:00 -1°C° 0 mm 1 mps 753 mmHg 78%
    07:00 -2°C° 0 mm 1 mps 753 mmHg 77%
    08:00 -1°C° 0 mm 1 mps 753 mmHg 74%
    09:00 -1°C° 0 mm 1 mps 754 mmHg 71%
    10:00 0°C° 0 mm 1 mps 754 mmHg 68%
    11:00 0°C° 0 mm 1 mps 754 mmHg 64%
    12:00 0°C° 0 mm 0 mps 754 mmHg 60%
    13:00 +1°C° 0 mm 0 mps 754 mmHg 56%
    14:00 +1°C° 0 mm 1 mps 754 mmHg 60%
    15:00 +1°C° 0 mm 1 mps 754 mmHg 64%
    16:00 0°C° 0 mm 1 mps 754 mmHg 68%
    17:00 0°C° 0 mm 1 mps 755 mmHg 70%
    18:00 -1°C° 0 mm 1 mps 755 mmHg 73%
    19:00 -1°C° 0 mm 1 mps 755 mmHg 76%
    20:00 -1°C° 0 mm 1 mps 756 mmHg 76%
    21:00 -1°C° 0 mm 1 mps 756 mmHg 77%
    22:00 -1°C° 0 mm 1 mps 756 mmHg 77%
    23:00 -1°C° 0 mm 1 mps 756 mmHg 78%

    21 January, Monday

    Time Temperature Precipitation Wind Pressure Humidity
    00:00 -1°C° 0 mm 1 mps 757 mmHg 78%
    01:00 -1°C° 0 mm 1 mps 757 mmHg 78%
    02:00 -2°C° 0 mm 1 mps 757 mmHg 78%
    03:00 -2°C° 0 mm 1 mps 757 mmHg 78%
    04:00 -2°C° 0 mm 1 mps 757 mmHg 78%
    05:00 -2°C° 0 mm 1 mps 757 mmHg 78%
    06:00 -2°C° 0 mm 1 mps 757 mmHg 78%
    07:00 -2°C° 0 mm 1 mps 757 mmHg 77%
    08:00 -2°C° 0 mm 1 mps 758 mmHg 75%
    09:00 -1°C° 0 mm 1 mps 758 mmHg 73%
    10:00 -1°C° 0 mm 1 mps 758 mmHg 71%
    11:00 -2°C° 0 mm 2 mps 758 mmHg 68%
    12:00 -1°C° 0 mm 2 mps 758 mmHg 66%
    13:00 -1°C° 0 mm 2 mps 758 mmHg 63%
    14:00 -1°C° 0 mm 2 mps 757 mmHg 65%
    15:00 -2°C° 0 mm 2 mps 757 mmHg 67%
    16:00 -2°C° 0 mm 2 mps 756 mmHg 69%
    17:00 -2°C° 0 mm 2 mps 756 mmHg 68%
    18:00 -2°C° 0 mm 2 mps 756 mmHg 67%
    19:00 -3°C° 0 mm 2 mps 756 mmHg 67%
    20:00 -3°C° 0 mm 2 mps 756 mmHg 66%
    21:00 -3°C° 0 mm 2 mps 756 mmHg 65%
    22:00 -3°C° 0 mm 2 mps 755 mmHg 64%
    23:00 -3°C° 0 mm 2 mps 755 mmHg 66%

    22 January, Tuesday

    Time Temperature Precipitation Wind Pressure Humidity
    00:00 -3°C° 0 mm 2 mps 755 mmHg 67%
    01:00 -3°C° 0 mm 2 mps 754 mmHg 69%
    02:00 -4°C° 0 mm 2 mps 754 mmHg 71%
    03:00 -4°C° 0 mm 2 mps 753 mmHg 73%
    04:00 -4°C° 0 mm 2 mps 753 mmHg 75%
    05:00 -4°C° 0 mm 2 mps 752 mmHg 76%
    06:00 -4°C° 0 mm 2 mps 752 mmHg 78%
    07:00 -4°C° 0 mm 2 mps 752 mmHg 79%
    08:00 -4°C° 0 mm 2 mps 752 mmHg 77%
    09:00 -3°C° 0 mm 2 mps 752 mmHg 75%
    10:00 -3°C° 0 mm 2 mps 751 mmHg 72%
    11:00 -2°C° 0 mm 2 mps 751 mmHg 69%
    12:00 -2°C° 0 mm 2 mps 751 mmHg 65%
    13:00 -1°C° 0 mm 2 mps 750 mmHg 61%
    14:00 -1°C° 0 mm 2 mps 750 mmHg 63%
    15:00 -2°C° 0 mm 2 mps 749 mmHg 65%
    16:00 -2°C° 0 mm 2 mps 749 mmHg 67%
    17:00 -2°C° 0 mm 3 mps 749 mmHg 66%
    18:00 -4°C° 0 mm 3 mps 748 mmHg 64%
    19:00 -4°C° 0 mm 3 mps 748 mmHg 63%
    20:00 -4°C° 0 mm 3 mps 748 mmHg 62%
    21:00 -4°C° 0 mm 3 mps 748 mmHg 61%
    22:00 -4°C° 0 mm 3 mps 748 mmHg 60%
    23:00 -5°C° 0 mm 3 mps 747 mmHg 61%

    23 January, Wednesday

    Time Temperature Precipitation Wind Pressure Humidity
    00:00 -5°C° 0 mm 3 mps 747 mmHg 63%
    01:00 -5°C° 0 mm 4 mps 747 mmHg 64%
    02:00 -5°C° 0 mm 4 mps 747 mmHg 66%
    03:00 -5°C° 0 mm 4 mps 746 mmHg 69%
    04:00 -5°C° 0 mm 4 mps 746 mmHg 71%
    05:00 -5°C° 0 mm 4 mps 746 mmHg 70%
    06:00 -5°C° 0 mm 4 mps 746 mmHg 70%
    07:00 -6°C° 0 mm 5 mps 745 mmHg 69%
    08:00 -6°C° 0 mm 5 mps 746 mmHg 69%
    09:00 -6°C° 0 mm 5 mps 746 mmHg 70%
    10:00 -6°C° 0 mm 5 mps 746 mmHg 71%
    11:00 -5°C° 0 mm 5 mps 746 mmHg 67%
    12:00 -4°C° 0 mm 5 mps 746 mmHg 64%
    13:00 -4°C° 0 mm 5 mps 745 mmHg 60%
    14:00 -4°C° 0 mm 5 mps 745 mmHg 61%
    15:00 -4°C° 0 mm 5 mps 745 mmHg 61%
    16:00 -4°C° 0 mm 5 mps 745 mmHg 62%
    17:00 -5°C° 0 mm 5 mps 746 mmHg 63%
    18:00 -5°C° 0 mm 5 mps 746 mmHg 63%
    19:00 -5°C° 0 mm 5 mps 746 mmHg 64%
    20:00 -6°C° 0 mm 5 mps 746 mmHg 66%
    21:00 -6°C° 0 mm 5 mps 747 mmHg 67%
    22:00 -5°C° 0 mm 4 mps 747 mmHg 68%
    23:00 -5°C° 0 mm 4 mps 747 mmHg 71%
    Show more